Weather History for Cleveland, OH

Change the Weather History Date:

Sunday, October 7, 2012

  Actual Average Record
Temperature  
Mean Temperature 45 °F 57 °F  
Max Temperature 49 °F 65 °F 88 °F (1946)
Min Temperature 41 °F 48 °F 30 °F (1964)
Degree Days  
Heating Degree Days 20 9  
Month to date heating degree days 62 56  
Since 1 July heating degree days 201 159  
Cooling Degree Days 0 1  
Month to date cooling degree days 1 7  
Year to date cooling degree days 1087 811  
Moisture  
Dew Point 39 °F    
Average Humidity 83    
Maximum Humidity 96    
Minimum Humidity 70    
Precipitation  
Precipitation 0.13 in 0.11 in 1.03 in (1998)
Month to date precipitation 2.09 0.75  
Year to date precipitation 31.62 30.10  
Snow  
Snow 0.00 in 0.00 in - ()
Month to date snowfall 0.0 0.0  
Since 1 July snowfall 0.0 0.0  
Since 1 September snowfall 0.0 0.0  
Snow Depth 0.00 in    
Sea Level Pressure  
Sea Level Pressure 30.14 in    
Wind  
Wind Speed 7 mph (SW)    
Max Wind Speed 15 mph    
Max Gust Speed 17 mph    
Visibility 10 miles    
Events Rain    
T = Trace of Precipitation, MM = Missing Value Source: NWS Daily Summary

Daily Weather History Graph

Daily Weather History Graph

Search for Another Location

Airport:

Trip Planner

Search our weather history database for the weather conditions in past years. The results will help you decide how hot, cold, wet, or windy it might be!

Date:

Astronomy

Oct. 07, 2012 Rise Set
Actual Time 7:31 AM EDT 6:58 PM EDT
Civil Twilight 7:03 AM EDT 7:26 PM EDT
Nautical Twilight 6:31 AM EDT 7:58 PM EDT
Astronomical Twilight 5:59 AM EDT 8:30 PM EDT
Moon No Moon Rise 2:10 PM EDT (10/7)
Length of Visible Light 12h 22m
Length of Day
11h 27m
Waning Gibbous, 56% of the Moon is Illuminated
Oct 7
Waning Gibbous
Oct 8
Last Quarter
Oct 15
New
Oct 21
First Quarter
Oct 29
Full

Hourly Weather History & Observations

Time (EDT) Temp. Windchill Dew Point Humidity Pressure Visibility Wind Dir Wind Speed Gust Speed Precip Events Conditions
12:51 AM 45.0 °F 42.6 °F 36.0 °F 71% 30.12 in 10.0 mi WSW 4.6 mph - N/A   Overcast
1:51 AM 45.0 °F 43.5 °F 37.9 °F 76% 30.13 in 10.0 mi WSW 3.5 mph - N/A   Overcast
2:51 AM 44.6 °F 40.7 °F 37.4 °F 76% 30.12 in 10.0 mi SW 6.9 mph - N/A Rain Light Rain
3:51 AM 43.0 °F 41.3 °F 39.0 °F 86% 30.11 in 10.0 mi West 3.5 mph - 0.00 in Rain Light Rain
4:51 AM 43.0 °F 41.3 °F 41.0 °F 93% 30.11 in 10.0 mi WSW 3.5 mph - 0.01 in Rain Light Rain
5:51 AM 43.0 °F 39.5 °F 39.9 °F 89% 30.09 in 10.0 mi SSW 5.8 mph - 0.00 in Rain Light Rain
6:51 AM 43.0 °F 38.8 °F 39.9 °F 89% 30.11 in 10.0 mi SW 6.9 mph - 0.00 in Rain Light Rain
7:51 AM 43.0 °F 39.5 °F 39.9 °F 89% 30.12 in 10.0 mi SSW 5.8 mph - 0.01 in Rain Light Rain
8:51 AM 43.0 °F 40.3 °F 39.9 °F 89% 30.12 in 10.0 mi SW 4.6 mph - 0.00 in   Overcast
9:51 AM 45.0 °F 41.2 °F 41.0 °F 86% 30.14 in 10.0 mi West 6.9 mph - N/A   Overcast
10:51 AM 45.0 °F 42.6 °F 39.0 °F 80% 30.14 in 10.0 mi SW 4.6 mph - N/A   Overcast
11:51 AM 45.0 °F 42.6 °F 37.9 °F 76% 30.15 in 10.0 mi West 4.6 mph - 0.00 in Rain Light Rain
12:51 PM 43.0 °F 36.4 °F 39.0 °F 86% 30.16 in 10.0 mi West 12.7 mph - 0.03 in Rain Light Rain
1:41 PM 42.8 °F 37.5 °F 37.4 °F 81% 30.15 in 8.0 mi WSW 9.2 mph - 0.03 in Rain Light Rain
1:51 PM 42.1 °F 36.6 °F 39.0 °F 89% 30.16 in 9.0 mi WSW 9.2 mph - 0.04 in Rain Light Rain
2:06 PM 42.8 °F 36.6 °F 39.2 °F 87% 30.14 in 10.0 mi WSW 11.5 mph - 0.01 in Rain Light Rain
2:51 PM 42.1 °F 36.1 °F 39.0 °F 89% 30.15 in 10.0 mi WSW 10.4 mph - 0.03 in Rain Light Rain
3:51 PM 45.0 °F 41.8 °F 39.9 °F 82% 30.14 in 10.0 mi SSW 5.8 mph - 0.01 in   Overcast
4:51 PM 46.0 °F 43.1 °F 39.0 °F 76% 30.14 in 10.0 mi SSW 5.8 mph - N/A   Overcast
5:51 PM 46.9 °F - 37.0 °F 68% 30.15 in 10.0 mi SW 8.1 mph - N/A   Overcast
6:51 PM 45.0 °F 41.8 °F 36.0 °F 71% 30.15 in 10.0 mi South 5.8 mph - N/A   Mostly Cloudy
7:51 PM 44.1 °F 40.1 °F 37.0 °F 76% 30.16 in 10.0 mi South 6.9 mph - N/A   Mostly Cloudy
8:51 PM 44.1 °F 40.1 °F 37.9 °F 79% 30.17 in 10.0 mi South 6.9 mph - N/A   Mostly Cloudy
9:51 PM 44.1 °F 40.1 °F 37.0 °F 76% 30.18 in 10.0 mi SSW 6.9 mph - N/A   Mostly Cloudy
10:51 PM 43.0 °F 38.2 °F 37.0 °F 80% 30.18 in 10.0 mi South 8.1 mph - N/A   Mostly Cloudy
11:51 PM 42.1 °F 36.6 °F 36.0 °F 79% 30.19 in 10.0 mi SSW 9.2 mph - N/A   Partly Cloudy